{"data":{"norad_id":65367,"epoch":"2026-05-25T03:56:38.283072Z","epoch_age_seconds":67634,"freshness":"FRESH","line1":"1 65367U 25190S   26145.16433198  .00013914  00000+0  43329-3 0  9998","line2":"2 65367  53.1589 172.9702 0001361  91.9841 268.1317 15.33573029 41462","mean_motion":15.33573029,"eccentricity":0.0001361,"inclination_deg":53.1589,"raan_deg":172.9702,"arg_perigee_deg":91.9841,"mean_anomaly_deg":268.1317,"bstar":0.00043329,"rev_number":4146,"period_min":93.898364979657,"perigee_km":464.23090371981,"apogee_km":466.09364978295,"semimajor_km":6843.2992767514,"source":"CELESTRAK","updated_at":"2026-05-25T13:38:20.768490Z"}}